User: anonymous   Login
Location: Unspecified
(0.0000°N, 0.0000°E)
Time: 21:46:37
(UTC+01:00)
Language:

Cosmos 2082 Rocket - Orbit

View from above orbital plane
View from above orbital plane
View from above satellite
View from above satellite

Ground track
Ground track

The orbit data is extracted from the following two-line orbital elements,

1 20625U 90046B   15059.22292576 -.00000274  00000-0 -11741-3 0  9991
2 20625 070.9984 111.9882 0016556 298.4395 117.7590 14.14563397279053
Epoch (UTC): 28 February 2015 05:21:00
Eccentricity: 0.0016556
inclination: 70.9984°
perigee height: 832 km
apogee height: 856 km
right ascension of ascending node: 111.9882°
argument of perigee: 298.4395°
revolutions per day: 14.14563397
mean anomaly at epoch: 117.7590°
orbit number at epoch: 27905

The dashed part of the orbit path shows where the satellite is in the earth's shadow,  

DLR